Location: Fort Worth, Tx
(32.7431°N, 97.3695°W)
Time: 01:12:48
(UTC-04:00)

Vanguard 2 - Pass Details

Date: 23 February 2024
Orbit: 552 x 2916 km, 32.9° (Epoch: 24 April)

Event Time Altitude Azimuth Distance (km) Brightness Sun altitude
Exits shadow 04:56:50 25° 184° (S) 3,961 10.9 -40.0°
Drops below altitude 10° 05:02:28 10° 163° (SSE) 4,696 11.5 -38.8°
Sets 05:06:09 0° 154° (SSE) 5,384 12.0 -38.1°
